Location: Newark
(44.1667°N, 8.2500°E)
Time: 03:23:35
(UTC+00:00)

Explorer 11/Cluster Stage 4 - Visible Passes

Search period start: 15 December 2019 00:00
Search period end: 25 December 2019 00:00
Orbit: 467 x 1259 km, 28.8° (Epoch: 13 December)

Date Brightness Start Highest point End Pass type
(mag) Time Alt. Az. Time Alt. Az. Time Alt. Az.
15 Dec 10.1 06:17:38 10° S 06:20:15 12° SSE 06:22:47 10° SE visible
16 Dec 10.0 06:05:34 10° S 06:09:15 14° SSE 06:12:50 10° SE visible
17 Dec 9.8 05:53:51 10° SSW 05:58:15 15° SSE 06:02:32 10° SE visible
18 Dec 9.7 05:42:19 10° SSW 05:47:14 17° SSE 05:52:02 10° SE visible
19 Dec 9.7 05:30:56 10° SSW 05:36:12 19° SSE 05:41:26 10° ESE visible
20 Dec 9.6 05:19:39 10° SSW 05:25:10 20° SSE 05:30:43 10° ESE visible
21 Dec 9.4 05:08:28 10° SSW 05:14:08 21° SSE 05:19:56 10° ESE visible
22 Dec 9.6 03:13:22 10° SSE 03:15:17 11° SSE 03:17:17 10° SE visible
22 Dec 9.3 04:57:21 10° SSW 05:03:06 22° SSE 05:09:05 10° ESE visible
23 Dec 9.5 03:03:44 12° SSE 03:04:15 12° SSE 03:07:02 10° SE visible
23 Dec 9.2 04:46:19 10° SW 04:52:04 23° SSE 04:58:09 10° ESE visible
24 Dec 9.5 02:54:00 13° SSE 02:54:00 13° SSE 02:56:30 10° SE visible
24 Dec 9.1 04:36:10 13° SW 04:41:04 24° S 04:47:11 10° ESE visible
24 Dec 9.2 06:23:04 10° WSW 06:29:18 25° S 06:35:40 10° SE visible
